Find Starlink 32760

NORAD ID: 62568 Int'l Des: 2025-006 Owner: SPXS Country: US Constellation: starlink operational
LEOCIRCULAR

現在のビュー

3D地球を読み込み中...

About Starlink 32760

Starlink 32760 (NORAD 62568) is a starlink constellation satellite (v2 mini) launched Jan 10, 2025 by SPXS of US. It operates in LEO, CIRCULAR orbit with a mass of 730.00 kg.

Starlink 32760について

説明を読み込み中...

次回通過

Passes for default location (London). Set your location on the main map for personalized predictions.

高度履歴

Loading altitude history...

軌道要素

1 62568U 25006Q 26168.09516885 .00019334 00000-0 70992-3 0 9995
2 62568 43.0022 91.3318 0000681 274.2815 85.7959 15.27596200 80063
Epoch: Jun 17, 2026 • Age: 29 hours

現在のステータス

高度 483.6 km
速度 7.63 km/s
衛星直下点 -5.55°S, 106.36°W
打ち上げ日 Jan 10, 2025
運用期間 1.4 years
タイプ internet

技術仕様

分類 Payload
質量 730.00 kg
乾燥質量 700.00 kg
総質量 730.00 kg
長さ 0.30 m
直径 4.10 m
スパン 29.00 m
形状 Box + pan
製造者 SPXS
バスタイプ Starlink V2M
フェーズステータス In Orbit
所有者/国 SPXS/US

Most Searched